Weather History for KSUX - September, 2013

Change the Weather History Date:

Sunday, September 1, 2013

  Actual Average Record
Temperature  
Mean Temperature 73 °F 69 °F  
Max Temperature 81 °F 81 °F 98 °F (1970)
Min Temperature 64 °F 57 °F 38 °F (1949)
Degree Days  
Heating Degree Days 0 1  
Month to date heating degree days 0 1  
Since 1 July heating degree days 20 16  
Cooling Degree Days 8 5  
Month to date cooling degree days 8 5  
Year to date cooling degree days 809 782  
Growing Degree Days 22 (Base 50)    
Moisture  
Dew Point 65 °F    
Average Humidity 78    
Maximum Humidity 96    
Minimum Humidity 42    
Precipitation  
Precipitation 0.37 in 0.11 in 3.12 in (1933)
Month to date precipitation 0.37 0.11  
Year to date precipitation 20.50 20.65  
Snow  
Snow 0.00 in 0.00 in 0.00 in ()
Month to date snowfall 0.0 0.0  
Since 1 July snowfall 0.0 0.0  
Since 1 September snowfall 0.0 0.0  
Snow Depth 0.00 in    
Sea Level Pressure  
Sea Level Pressure 29.90 in    
Wind  
Wind Speed 10 mph (NNW)    
Max Wind Speed 23 mph    
Max Gust Speed 28 mph    
Visibility 9 miles    
Events Rain , Thunderstorm    
T = Trace of Precipitation, MM = Missing Value Source: NWS Daily Summary

Daily Weather History Graph

Daily Weather History Graph

Search for Another Location

Airport or City:

Trip Planner

Search our weather history database for the weather conditions in past years. The results will help you decide how hot, cold, wet, or windy it might be!

Date:

Astronomy

Sep. 01, 2013 Rise Set
Actual Time 6:50 AM CDT 7:59 PM CDT
Civil Twilight 6:22 AM CDT 8:27 PM CDT
Nautical Twilight 5:47 AM CDT 9:02 PM CDT
Astronomical Twilight 5:11 AM CDT 9:38 PM CDT
Moon 3:10 AM CDT (9/1) 5:39 PM CDT (9/1)
Length of Visible Light 14h 05m
Length of Day
13h 08m
Waning Crescent, 13% of the Moon is Illuminated
Sep 1
Waning Crescent
Sep 5
New
Sep 12
First Quarter
Sep 19
Full
Sep 26
Last Quarter

Hourly Weather History & Observations

Time (CDT) Temp. Heat Index Dew Point Humidity Pressure Visibility Wind Dir Wind Speed Gust Speed Precip Events Conditions
12:38 AM 77.0 °F - 73.4 °F 89% 29.76 in 10.0 mi ESE 3.5 mph - N/A Thunderstorm Scattered Clouds
12:52 AM 75.0 °F - 73.0 °F 94% 29.80 in 5.0 mi NNW 13.8 mph 20.7 mph 0.02 in Rain , Thunderstorm Thunderstorms and Rain
1:22 AM 71.6 °F - 69.8 °F 94% 29.84 in 2.0 mi NNE 13.8 mph - 0.16 in Rain , Thunderstorm Heavy Thunderstorms and Rain
1:30 AM 73.4 °F - 69.8 °F 88% 29.85 in 3.0 mi NE 17.3 mph 25.3 mph 0.26 in Rain , Thunderstorm Light Thunderstorms and Rain
1:52 AM 71.1 °F - 66.9 °F 87% 29.83 in 10.0 mi East 10.4 mph - 0.26 in Thunderstorm Mostly Cloudy
2:07 AM 69.8 °F - 66.2 °F 88% 29.86 in 10.0 mi East 10.4 mph - 0.00 in Rain Light Rain
2:31 AM 69.8 °F - 68.0 °F 94% 29.92 in 5.0 mi NW 17.3 mph 27.6 mph 0.00 in Rain , Thunderstorm Light Rain
2:52 AM 69.1 °F - 68.0 °F 96% 29.77 in 10.0 mi NE 9.2 mph - 0.14 in Rain , Thunderstorm Light Rain
3:02 AM 69.8 °F - 68.0 °F 94% 29.84 in 10.0 mi WNW 4.6 mph - 0.00 in Rain Light Rain
3:28 AM 69.8 °F - 68.0 °F 94% 29.86 in 10.0 mi WNW 4.6 mph - 0.00 in   Mostly Cloudy
3:52 AM 69.1 °F - 68.0 °F 96% 29.84 in 10.0 mi NW 8.1 mph - 0.00 in   Mostly Cloudy
4:18 AM 69.8 °F - 68.0 °F 94% 29.86 in 10.0 mi NNW 8.1 mph - N/A Thunderstorm Partly Cloudy
4:33 AM 69.8 °F - 68.0 °F 94% 29.87 in 10.0 mi NNW 9.2 mph - N/A   Clear
4:52 AM 69.1 °F - 66.9 °F 93% 29.84 in 10.0 mi NNW 8.1 mph - N/A   Clear
5:52 AM 68.0 °F - 66.0 °F 93% 29.86 in 10.0 mi NNW 8.1 mph - N/A   Clear
6:52 AM 64.9 °F - 63.0 °F 93% 29.89 in 10.0 mi NW 5.8 mph - N/A   Clear
7:52 AM 66.0 °F - 64.0 °F 93% 29.93 in 10.0 mi WNW 5.8 mph - N/A   Clear
8:52 AM 68.0 °F - 63.0 °F 84% 29.96 in 10.0 mi NW 5.8 mph - N/A   Clear
9:52 AM 71.1 °F - 64.0 °F 78% 29.95 in 10.0 mi NW 9.2 mph - N/A   Clear
10:52 AM 73.9 °F - 64.0 °F 71% 29.95 in 10.0 mi NW 9.2 mph - N/A   Clear
11:52 AM 75.9 °F - 64.0 °F 67% 29.95 in 10.0 mi NW 10.4 mph - N/A   Clear
12:52 PM 79.0 °F - 60.1 °F 52% 29.94 in 10.0 mi NNW 16.1 mph - N/A   Clear
1:52 PM 79.0 °F - 60.1 °F 52% 29.94 in 10.0 mi NNW 18.4 mph - N/A   Clear
2:52 PM 80.1 °F 80.7 °F 59.0 °F 48% 29.93 in 10.0 mi NNW 16.1 mph 21.9 mph N/A   Clear
3:52 PM 80.1 °F 80.7 °F 59.0 °F 48% 29.93 in 10.0 mi NNW 20.7 mph 25.3 mph N/A   Clear
4:52 PM 80.1 °F 80.9 °F 60.1 °F 50% 29.93 in 10.0 mi NNW 16.1 mph 23.0 mph N/A   Clear
5:52 PM 80.1 °F 81.1 °F 61.0 °F 52% 29.94 in 10.0 mi North 12.7 mph 20.7 mph N/A   Scattered Clouds
6:52 PM 78.1 °F - 61.0 °F 56% 29.94 in 10.0 mi North 12.7 mph - N/A   Mostly Cloudy
7:52 PM 73.0 °F - 61.0 °F 66% 29.95 in 10.0 mi North 8.1 mph - N/A   Clear
8:52 PM 71.1 °F - 61.0 °F 70% 29.97 in 10.0 mi North 8.1 mph - N/A   Clear
9:52 PM 69.1 °F - 60.1 °F 73% 29.99 in 10.0 mi North 8.1 mph - N/A   Clear
10:52 PM 68.0 °F - 60.1 °F 76% 30.01 in 10.0 mi NNE 6.9 mph - N/A   Clear
11:52 PM 66.0 °F - 60.1 °F 81% 30.03 in 10.0 mi NNE 5.8 mph - N/A   Clear